FW1036 Weather Reports


time (UTC)temp
C
wind
direction
speed
KPH
gust
KPH
rain 1hr
cm
rain 24hr
cm
rain mn
cm
humidity
%
barometer
mb
20260509154553 14 185 14.5 33.8 0.00 0.00 0.00 67 1000.0
20260509153101 14 189 9.7 24.1 0.00 0.00 0.00 64 1000.3
20260509151557 14 173 9.7 20.9 0.00 0.00 0.00 67 1000.5
20260509150045 14 192 16.1 37.0 0.00 0.00 0.00 68 1000.6
20260509144541 14 165 11.3 32.2 0.00 0.00 0.00 73 1000.9
20260509143041 13 173 9.7 25.7 0.00 0.00 0.00 76 1001.3
20260509141543 12 223 11.3 24.1 0.00 0.00 0.00 78 1001.6
20260509140033 12 225 9.7 29.0 0.00 0.00 0.00 77 1001.7
20260509134534 12 223 9.7 19.3 0.00 0.00 0.00 76 1002.4
20260509133044 12 229 4.8 22.5 0.00 0.00 0.00 75 1002.0
20260509131533 13 185 8.0 16.1 0.00 0.00 0.00 76 1001.8
20260509130028 12 184 6.4 12.9 0.00 0.00 0.00 79 1001.8
20260509124525 11 182 6.4 16.1 0.00 0.00 0.00 79 1002.0
20260509123023 11 201 6.4 17.7 0.00 0.00 0.00 80 1002.1
20260509121520 9 171 8.0 17.7 0.00 0.00 0.00 80 1002.2
20260509120115 9 161 6.4 19.3 0.00 0.00 0.00 80 1002.5
20260509114513 9 174 8.0 22.5 0.00 0.00 0.00 79 1002.6
20260509113011 8 188 4.8 12.9 0.00 0.00 0.00 78 1002.8
20260509111513 7 224 3.2 9.7 0.00 0.00 0.00 75 1003.0
20260509110004 7 209 3.2 9.7 0.00 0.00 0.00 74 1003.2
20260509104502 7 188 3.2 11.3 0.00 0.00 0.00 73 1003.4
20260509103111 7 165 4.8 12.9 0.00 0.00 0.00 72 1003.1
20260509101558 6 157 1.6 8.0 0.00 0.00 0.00 75 1003.5
20260509100055 6 213 0.0 4.8 0.00 0.00 0.00 79 1003.6
20260509094555 6 213 1.6 4.8 0.00 0.00 0.00 79 1003.7
20260509093050 6 233 3.2 6.4 0.00 0.00 0.00 78 1003.8
20260509091548 6 211 1.6 6.4 0.00 0.00 0.00 77 1003.8
20260509090054 7 200 1.6 6.4 0.00 0.00 0.00 79 1003.7
20260509084545 6 167 3.2 8.0 0.00 0.00 0.00 82 1003.8
20260509083042 6 213 1.6 8.0 0.00 0.00 0.00 85 1003.9
20260509081550 7 198 3.2 6.4 0.00 0.00 0.00 86 1003.9
20260509080039 7 198 3.2 11.3 0.00 0.00 0.00 88 1004.2
20260509074636 7 192 3.2 8.0 0.00 0.00 0.00 89 1004.2
20260509073044 7 234 3.2 9.7 0.00 0.00 0.00 89 1004.2
20260509071545 7 173 3.2 8.0 0.00 0.00 0.00 89 1004.4
20260509070041 7 169 4.8 9.7 0.00 0.00 0.00 90 1004.4
20260509064532 7 178 4.8 12.9 0.00 0.00 0.00 89 1004.6
20260509063053 7 173 6.4 11.3 0.00 0.00 0.00 89 1004.7
20260509061541 7 166 4.8 12.9 0.00 0.00 0.00 89 1004.9
20260509060033 8 201 4.8 9.7 0.00 0.00 0.00 89 1005.2
20260509054521 8 176 4.8 12.9 0.00 0.00 0.00 88 1005.4
20260509053022 8 157 8.0 14.5 0.00 0.00 0.00 88 1005.6
20260509051519 8 179 8.0 12.9 0.00 0.00 0.00 88 1005.7
20260509050018 7 165 6.4 11.3 0.00 0.00 0.00 88 1005.7
20260509044518 7 154 4.8 9.7 0.00 0.00 0.00 87 1005.8
20260509043013 7 138 4.8 11.3 0.00 0.00 0.00 84 1005.9
20260509041510 8 132 3.2 11.3 0.00 0.00 0.00 83 1005.9
20260509040006 8 178 6.4 14.5 0.00 0.00 0.00 82 1006.0
20260509034505 8 162 6.4 12.9 0.00 0.00 0.00 79 1006.0
20260509033004 8 167 9.7 14.5 0.00 0.00 0.00 75 1006.0
20260509031503 8 174 6.4 11.3 0.00 0.00 0.00 72 1006.3
20260509030002 9 172 8.0 11.3 0.00 0.00 0.00 70 1006.5
20260509024500 8 159 4.8 8.0 0.00 0.00 0.00 67 1006.5
20260509023107 8 170 3.2 6.4 0.00 0.00 0.00 67 1006.6
20260509021600 8 145 4.8 8.0 0.00 0.00 0.00 66 1006.7
20260509014559 9 138 3.2 9.7 0.00 0.00 0.00 62 1006.7
20260509013100 9 120 6.4 11.3 0.00 0.00 0.00 60 1006.6
20260509011558 10 137 3.2 8.0 0.00 0.00 0.00 58 1006.6
20260509010056 10 128 6.4 11.3 0.00 0.00 0.00 56 1006.6
20260509004606 10 146 6.4 14.5 0.00 0.00 0.00 52 1006.4
20260509003056 11 132 8.0 12.9 0.00 0.00 0.00 51 1006.4
20260509001555 12 102 8.0 11.3 0.00 0.00 0.00 49 1006.4
20260509000055 13 157 0.0 4.8 0.00 0.00 0.00 43 1006.2
20260508234555 14 227 3.2 11.3 0.00 0.00 0.00 38 1006.3
20260508233053 15 257 3.2 16.1 0.00 0.00 0.00 35 1006.4
20260508231552 15 223 8.0 16.1 0.00 0.00 0.00 34 1006.4
20260508230052 16 237 4.8 11.3 0.00 0.00 0.00 34 1006.4
20260508224552 16 222 9.7 24.1 0.00 0.00 0.00 34 1006.5
20260508223050 16 253 6.4 16.1 0.00 0.00 0.00 34 1006.6
20260508221556 16 229 4.8 14.5 0.00 0.00 0.00 33 1006.5
20260508220048 16 246 4.8 14.5 0.00 0.00 0.00 33 1006.6
20260508214547 16 237 6.4 19.3 0.00 0.00 0.00 33 1006.5
20260508213045 16 204 8.0 22.5 0.00 0.00 0.00 33 1006.6
20260508211544 16 244 8.0 16.1 0.00 0.00 0.00 32 1006.6
20260508210043 16 259 8.0 16.1 0.00 0.00 0.00 33 1006.9
20260508204541 16 229 8.0 17.7 0.00 0.00 0.00 32 1007.0
20260508203042 16 234 3.2 12.9 0.00 0.00 0.00 35 1007.1
20260508201546 16 237 11.3 17.7 0.00 0.00 0.00 33 1007.3
20260508200036 16 167 8.0 20.9 0.00 0.00 0.00 33 1007.5
20260508194533 15 302 3.2 17.7 0.00 0.00 0.00 35 1007.8
20260508193031 15 208 8.0 22.5 0.00 0.00 0.00 33 1008.1
20260508191535 15 221 4.8 20.9 0.00 0.00 0.00 40 1008.3
20260508190034 15 207 4.8 14.5 0.00 0.00 0.00 36 1008.4
20260508184528 15 216 3.2 19.3 0.00 0.00 0.00 36 1008.6
20260508183023 15 240 9.7 16.1 0.00 0.00 0.00 38 1008.9
20260508181531 15 221 11.3 19.3 0.00 0.00 0.00 38 1009.0
20260508180019 14 258 8.0 19.3 0.00 0.00 0.00 39 1009.1
20260508174517 15 208 9.7 17.7 0.00 0.00 0.00 41 1009.4
20260508173018 15 247 9.7 17.7 0.00 0.00 0.00 35 1009.7
20260508171521 14 271 9.7 20.9 0.00 0.00 0.00 42 1009.9
20260508170012 13 190 4.8 25.7 0.00 0.00 0.00 41 1010.2
20260508164507 13 157 3.2 17.7 0.00 0.00 0.00 42 1010.2
20260508163005 13 305 6.4 20.9 0.00 0.00 0.00 38 1010.4
20260508161502 13 268 8.0 17.7 0.00 0.00 0.00 44 1010.6
20260508160058 13 208 9.7 16.1 0.00 0.00 0.00 44 1010.7